| time (UTC) | temp F | wind direction | speed MPH | gust MPH | rain 1hr in | rain 24hr in | rain mn in | humidity % | barometer mb |
| 20260903110059 | 55 | 115 | 1.0 | 7.0 | 0.05 | 0.13 | 0.06 | 95 | 1006.9 |
| 20260903104602 | 55 | 114 | 1.0 | 7.0 | 0.05 | 0.13 | 0.06 | 94 | 1006.8 |
| 20260903103049 | 55 | 105 | 1.0 | 5.0 | 0.03 | 0.11 | 0.04 | 93 | 1006.8 |
| 20260903101550 | 56 | 105 | 1.0 | 10.0 | 0.00 | 0.08 | 0.01 | 92 | 1006.7 |
| 20260903100048 | 56 | 115 | 3.0 | 7.0 | 0.00 | 0.08 | 0.01 | 91 | 1006.6 |
| 20260903094553 | 56 | 109 | 1.0 | 10.0 | 0.00 | 0.08 | 0.01 | 92 | 1006.6 |
| 20260903093046 | 56 | 109 | 2.0 | 10.0 | 0.01 | 0.08 | 0.01 | 93 | 1006.6 |
| 20260903091550 | 56 | 113 | 0.0 | 10.0 | 0.01 | 0.08 | 0.01 | 92 | 1006.5 |
| 20260903090048 | 56 | 89 | 2.0 | 8.0 | 0.01 | 0.08 | 0.01 | 93 | 1006.6 |
| 20260903084543 | 56 | 76 | 0.0 | 6.0 | 0.01 | 0.08 | 0.01 | 92 | 1006.6 |
| 20260903083042 | 56 | 95 | 1.0 | 7.0 | 0.00 | 0.07 | 0.00 | 92 | 1006.8 |
| 20260903081541 | 56 | 101 | 0.0 | 7.0 | 0.00 | 0.07 | 0.00 | 91 | 1006.6 |
| 20260903080040 | 56 | 109 | 2.0 | 9.0 | 0.00 | 0.07 | 0.00 | 91 | 1006.7 |
| 20260903074541 | 56 | 101 | 2.0 | 8.0 | 0.00 | 0.07 | 0.00 | 92 | 1006.6 |
| 20260903073037 | 55 | 142 | 1.0 | 9.0 | 0.01 | 0.07 | 0.00 | 92 | 1006.6 |
| 20260903071542 | 55 | 114 | 1.0 | 5.0 | 0.01 | 0.07 | 0.00 | 92 | 1006.4 |
| 20260903070033 | 55 | 150 | 0.0 | 0.0 | 0.01 | 0.07 | 0.00 | 91 | 1006.5 |
| 20260903064532 | 56 | 110 | 0.0 | 4.0 | 0.01 | 0.07 | 0.07 | 90 | 1006.6 |
| 20260903063030 | 56 | 105 | 0.0 | 2.0 | 0.00 | 0.06 | 0.06 | 88 | 1006.4 |
| 20260903061529 | 56 | 89 | 0.0 | 5.0 | 0.00 | 0.06 | 0.06 | 89 | 1006.7 |
| 20260903060029 | 56 | 138 | 0.0 | 7.0 | 0.00 | 0.06 | 0.06 | 88 | 1006.5 |
| 20260903054530 | 56 | 133 | 0.0 | 6.0 | 0.00 | 0.06 | 0.06 | 88 | 1006.5 |
| 20260903053027 | 56 | 138 | 0.0 | 4.0 | 0.00 | 0.06 | 0.06 | 89 | 1006.6 |
| 20260903051543 | 54 | 104 | 0.0 | 3.0 | 0.00 | 0.06 | 0.06 | 91 | 1006.5 |
| 20260903050026 | 53 | 153 | 0.0 | 0.0 | 0.00 | 0.06 | 0.06 | 90 | 1006.6 |
| 20260903044533 | 54 | 153 | 0.0 | 0.0 | 0.00 | 0.06 | 0.06 | 89 | 1006.6 |
| 20260903043056 | 55 | 152 | 0.0 | 1.0 | 0.00 | 0.06 | 0.06 | 88 | 1006.6 |
| 20260903041524 | 55 | 152 | 0.0 | 1.0 | 0.00 | 0.06 | 0.06 | 89 | 1006.6 |
| 20260903040023 | 54 | 117 | 0.0 | 2.0 | 0.00 | 0.06 | 0.06 | 89 | 1006.5 |
| 20260903034534 | 54 | 155 | 0.0 | 0.0 | 0.00 | 0.06 | 0.06 | 87 | 1006.3 |
| 20260903033021 | 54 | 155 | 0.0 | 0.0 | 0.00 | 0.06 | 0.06 | 88 | 1006.2 |
| 20260903031517 | 55 | 155 | 0.0 | 0.0 | 0.00 | 0.06 | 0.06 | 84 | 1006.0 |
| 20260903030016 | 57 | 155 | 0.0 | 0.0 | 0.00 | 0.06 | 0.06 | 82 | 1005.9 |
| 20260903024522 | 58 | 155 | 0.0 | 0.0 | 0.00 | 0.06 | 0.06 | 79 | 1005.9 |
| 20260903023015 | 60 | 165 | 0.0 | 0.0 | 0.00 | 0.06 | 0.06 | 77 | 1005.7 |
| 20260903021515 | 61 | 165 | 0.0 | 3.0 | 0.00 | 0.06 | 0.06 | 74 | 1005.6 |
| 20260903020015 | 63 | 143 | 0.0 | 4.0 | 0.00 | 0.06 | 0.06 | 72 | 1005.6 |
| 20260903014518 | 62 | 204 | 1.0 | 5.0 | 0.00 | 0.06 | 0.06 | 73 | 1005.5 |
| 20260903013011 | 61 | 108 | 2.0 | 15.0 | 0.00 | 0.06 | 0.06 | 74 | 1005.5 |
| 20260903011515 | 62 | 192 | 2.0 | 7.0 | 0.00 | 0.06 | 0.06 | 71 | 1005.2 |
| 20260903010010 | 63 | 124 | 2.0 | 6.0 | 0.00 | 0.06 | 0.06 | 70 | 1005.1 |
| 20260903004510 | 65 | 165 | 1.0 | 8.0 | 0.00 | 0.06 | 0.06 | 69 | 1005.1 |
| 20260903003009 | 64 | 117 | 1.0 | 9.0 | 0.00 | 0.06 | 0.06 | 73 | 1005.1 |
| 20260903001506 | 64 | 129 | 2.0 | 12.0 | 0.00 | 0.06 | 0.06 | 71 | 1005.0 |
| 20260903000005 | 64 | 182 | 4.0 | 13.0 | 0.00 | 0.07 | 0.06 | 74 | 1004.7 |
| 20260902234504 | 65 | 106 | 5.0 | 13.0 | 0.00 | 0.07 | 0.06 | 76 | 1004.3 |
| 20260902233004 | 62 | 173 | 5.0 | 10.0 | 0.00 | 0.07 | 0.06 | 83 | 1004.1 |
| 20260902231503 | 62 | 156 | 1.0 | 13.0 | 0.00 | 0.07 | 0.06 | 86 | 1004.0 |
| 20260902230002 | 62 | 91 | 4.0 | 11.0 | 0.00 | 0.07 | 0.06 | 88 | 1003.6 |
| 20260902224501 | 60 | 145 | 3.0 | 16.0 | 0.00 | 0.07 | 0.06 | 91 | 1003.4 |
| 20260902223201 | 59 | 100 | 5.0 | 13.0 | 0.00 | 0.07 | 0.06 | 90 | 1003.4 |
| 20260902221604 | 59 | 78 | 3.0 | 12.0 | 0.00 | 0.07 | 0.06 | 89 | 1003.3 |
| 20260902220059 | 59 | 86 | 5.0 | 18.0 | 0.00 | 0.07 | 0.06 | 88 | 1003.2 |
| 20260902214602 | 59 | 122 | 2.0 | 16.0 | 0.00 | 0.07 | 0.06 | 88 | 1003.2 |
| 20260902213106 | 59 | 77 | 2.0 | 12.0 | 0.00 | 0.07 | 0.06 | 89 | 1003.3 |
| 20260902211602 | 59 | 82 | 4.0 | 15.0 | 0.00 | 0.07 | 0.06 | 88 | 1003.2 |
| 20260902210058 | 59 | 91 | 1.0 | 9.0 | 0.01 | 0.07 | 0.06 | 89 | 1003.2 |
| 20260902204556 | 59 | 89 | 3.0 | 14.0 | 0.02 | 0.07 | 0.06 | 89 | 1003.2 |
| 20260902203055 | 59 | 95 | 1.0 | 9.0 | 0.03 | 0.07 | 0.06 | 89 | 1003.3 |
| 20260902201604 | 59 | 95 | 1.0 | 9.0 | 0.04 | 0.07 | 0.06 | 88 | 1003.6 |
| 20260902200123 | 60 | 126 | 1.0 | 16.0 | 0.04 | 0.06 | 0.05 | 87 | 1003.6 |
| 20260902194550 | 60 | 105 | 4.0 | 19.0 | 0.03 | 0.05 | 0.04 | 87 | 1003.9 |
| 20260902193047 | 60 | 123 | 3.0 | 15.0 | 0.03 | 0.04 | 0.03 | 86 | 1003.9 |
| 20260902191550 | 61 | 81 | 3.0 | 11.0 | 0.02 | 0.03 | 0.02 | 85 | 1004.0 |
| 20260902190058 | 62 | 101 | 1.0 | 10.0 | 0.01 | 0.02 | 0.01 | 82 | 1004.2 |
| 20260902184544 | 63 | 97 | 0.0 | 13.0 | 0.01 | 0.02 | 0.01 | 80 | 1004.3 |
| 20260902183047 | 64 | 147 | 4.0 | 18.0 | 0.00 | 0.01 | 0.00 | 75 | 1004.5 |
| 20260902181541 | 64 | 117 | 3.0 | 9.0 | 0.00 | 0.01 | 0.00 | 75 | 1004.7 |
| 20260902180040 | 64 | 150 | 3.0 | 9.0 | 0.00 | 0.01 | 0.00 | 76 | 1004.6 |
| 20260902174539 | 63 | 103 | 4.0 | 11.0 | 0.00 | 0.01 | 0.00 | 76 | 1004.8 |
| 20260902173038 | 64 | 106 | 4.0 | 16.0 | 0.00 | 0.01 | 0.00 | 75 | 1004.9 |
| 20260902171538 | 65 | 115 | 5.0 | 10.0 | 0.00 | 0.01 | 0.00 | 73 | 1004.9 |
| 20260902170036 | 64 | 121 | 3.0 | 9.0 | 0.00 | 0.01 | 0.00 | 75 | 1004.9 |
| 20260902164535 | 64 | 137 | 2.0 | 8.0 | 0.00 | 0.01 | 0.00 | 75 | 1004.9 |
| 20260902163030 | 63 | 146 | 1.0 | 7.0 | 0.00 | 0.01 | 0.00 | 78 | 1005.1 |
| 20260902161533 | 61 | 112 | 1.0 | 4.0 | 0.00 | 0.01 | 0.00 | 81 | 1005.0 |
| 20260902160030 | 60 | 109 | 0.0 | 4.0 | 0.00 | 0.01 | 0.00 | 83 | 1005.3 |
| 20260902154526 | 60 | 132 | 0.0 | 6.0 | 0.00 | 0.01 | 0.00 | 84 | 1005.2 |
| 20260902153018 | 59 | 143 | 0.0 | 10.0 | 0.00 | 0.01 | 0.00 | 86 | 1005.5 |
| 20260902151514 | 59 | 77 | 0.0 | 6.0 | 0.00 | 0.01 | 0.00 | 87 | 1005.6 |
| 20260902150014 | 58 | 94 | 0.0 | 8.0 | 0.00 | 0.01 | 0.00 | 88 | 1005.9 |
| 20260902144510 | 58 | 16 | 0.0 | 1.0 | 0.00 | 0.01 | 0.00 | 89 | 1006.0 |
| 20260902143008 | 58 | 125 | 0.0 | 5.0 | 0.00 | 0.01 | 0.00 | 89 | 1006.3 |
| 20260902141508 | 58 | 143 | 0.0 | 8.0 | 0.00 | 0.01 | 0.00 | 90 | 1006.4 |
| 20260902140008 | 58 | 103 | 1.0 | 8.0 | 0.00 | 0.01 | 0.00 | 90 | 1006.3 |
| 20260902134506 | 58 | 112 | 0.0 | 9.0 | 0.00 | 0.01 | 0.00 | 90 | 1006.5 |
| 20260902133003 | 58 | 122 | 1.0 | 6.0 | 0.00 | 0.01 | 0.00 | 90 | 1006.8 |
| 20260902131502 | 58 | 103 | 1.0 | 4.0 | 0.00 | 0.01 | 0.00 | 91 | 1006.9 |
| 20260902130001 | 58 | 103 | 0.0 | 5.0 | 0.00 | 0.01 | 0.00 | 91 | 1007.0 |
| 20260902124603 | 58 | 127 | 0.0 | 7.0 | 0.00 | 0.01 | 0.00 | 92 | 1007.0 |
| 20260902123059 | 57 | 98 | 1.0 | 7.0 | 0.00 | 0.01 | 0.00 | 92 | 1007.1 |
| 20260902121603 | 58 | 119 | 1.0 | 4.0 | 0.00 | 0.01 | 0.00 | 92 | 1007.3 |
| 20260902120056 | 58 | 88 | 1.0 | 5.0 | 0.00 | 0.01 | 0.00 | 92 | 1007.4 |
| 20260902114555 | 58 | 113 | 0.0 | 6.0 | 0.00 | 0.01 | 0.00 | 92 | 1007.6 |
| 20260902113108 | 57 | 94 | 0.0 | 5.0 | 0.00 | 0.01 | 0.00 | 93 | 1007.7 |
| 20260902111559 | 57 | 120 | 0.0 | 4.0 | 0.00 | 0.01 | 0.00 | 94 | 1007.6 |